{"data":{"norad_id":60408,"epoch":"2026-09-21T13:08:26.693952Z","epoch_age_seconds":95074,"freshness":"FRESH","line1":"1 60408U 24141L   26264.54753118 -.00000721  00000+0 -10995-5 0  9994","line2":"2 60408  53.1590 200.8176 0000896 100.9650 259.1469 15.69705715122503","mean_motion":15.69705715,"eccentricity":8.96e-5,"inclination_deg":53.159,"raan_deg":200.8176,"arg_perigee_deg":100.965,"mean_anomaly_deg":259.1469,"bstar":-1.0995e-6,"rev_number":12250,"period_min":91.736940640495,"perigee_km":359.13529878675,"apogee_km":360.34272616818,"semimajor_km":6737.8760124775,"source":"CELESTRAK","updated_at":"2026-09-22T09:00:49.230803Z"}}